www.pogodaiklimat.ru

Погода и климат >> Архив погоды >> Австралия >> Bourke Airport Aws


ПОГОДА в Bourke Airport Aws

  • Прогноз погоды в Bourke Airport Aws
  • Монитор погоды в Bourke Airport Aws
  • Климат города

АРХИВ ПОГОДЫ в Bourke Airport Aws

Время (UTC), дата Ветер
(напр.,м/с)
 
Видим.   Явления Облачность Т
(С)
Тd
(С)
f
(%)
Тe
(С)
Тes
(С)
Комфортность P
(гПа)
Po
(гПа)
Тmin
(С)
Tmax
(С)
R
(мм)
S
(см)
22 21.03 С 4 н/о н/о +25.5 +21.6 79 +33 +33 очень
душно
1012.6 1000.3
23 21.03 С 6 н/о н/о +27.8 +20.9 66 +35 +35 очень
душно
1012.9 1000.6
00 22.03 С 5 н/о н/о +29.7 +20.8 59 +37 +37 очень
душно
1012.9 1000.6
01 22.03 С 5 н/о н/о +31.0 +20.0 52 +37 +37 очень
душно
1012.5 1000.2 +22.5
02 22.03 СЗ 4 н/о н/о +32.6 +20.5 49 +39 +39 очень
душно
1011.9 999.6
03 22.03 С 4 н/о н/о +33.4 +19.8 45 +39 +39 очень
душно
1011.0 998.7
04 22.03 С 4 н/о н/о +33.9 +18.4 40 +38 +38 очень
душно
1010.2 997.9
05 22.03 С 4 н/о н/о +35.3 +17.0 34 +38 +38 очень
душно
1009.3 997.0
06 22.03 С 4 н/о н/о +35.4 +15.2 30 +37 +37 очень
душно
1008.7 996.4
07 22.03 С 2 н/о н/о +35.6 +14.8 29 +37 +37 душно 1008.3 996.0
08 22.03 С 4 н/о н/о +34.0 +15.9 34 +36 +36 душно 1008.5 996.2
09 22.03 СВ 4 н/о н/о +31.1 +18.5 47 +36 +36 очень
душно
1009.1 996.8
10 22.03 СВ 4 н/о н/о +29.5 +18.9 53 +35 +35 очень
душно
1009.9 997.6
11 22.03 СВ 4 н/о н/о +28.2 +19.4 59 +34 +34 очень
душно
1010.6 998.3
12 22.03 СВ 4 н/о н/о +27.1 +19.7 64 +33 +33 очень
душно
1010.6 998.3
14 22.03 С 5 н/о н/о +27.7 +18.1 56 +32 +32 очень
душно
1010.4 998.1
13 22.03 СВ 4 н/о н/о +26.7 +19.3 64 +32 +32 очень
душно
1010.6 998.3 +36.2
15 22.03 СВ 3 н/о н/о +26.1 +18.2 62 +31 +31 очень
душно
1010.4 998.1
16 22.03 СВ 4 н/о н/о +25.5 +18.4 65 +30 +30 душно 1010.1 997.8
17 22.03 СВ 4 н/о н/о +24.3 +18.7 71 +29 +29 душно 1010.3 998.0
18 22.03 СВ 3 н/о н/о +24.0 +19.3 75 +29 +29 душно 1010.4 998.1
20 22.03 В 2 н/о н/о +22.6 +19.4 82 +29 +29 очень
душно
1012.4 1000.1
19 22.03 ЮЗ 2 н/о н/о +23.6 +19.5 78 +29 +29 душно 1011.6 999.3
21 22.03 В 3 н/о н/о +23.8 +19.7 78 +29 +29 душно 1013.1 1000.8
22 22.03 СВ 4 н/о н/о +26.2 +19.3 66 +32 +32 очень
душно
1013.6 1001.3
23 22.03 С 4 н/о н/о +27.9 +19.1 59 +33 +33 очень
душно
1014.1 1001.8
00 23.03 С 5 н/о н/о +30.0 +19.4 53 +36 +36 очень
душно
1014.0 1001.7
02 23.03 С 4 н/о н/о +33.8 +17.5 38 +37 +37 очень
душно
1012.9 1000.6
01 23.03 СВ 5 н/о н/о +32.2 +18.0 43 +37 +37 очень
душно
1013.6 1001.3 +22.5
03 23.03 В 5 н/о н/о +34.2 +15.6 33 +36 +36 душно 1011.9 999.6
04 23.03 С 3 н/о н/о +35.6 +15.9 31 +38 +38 очень
душно
1011.0 998.7
05 23.03 СВ 5 н/о н/о +35.1 +14.9 30 +37 +37 очень
душно
1010.4 998.1
06 23.03 СВ 4 н/о н/о +35.4 +15.2 30 +37 +37 очень
душно
1009.9 997.6
08 23.03 СВ 5 н/о н/о +33.5 +15.0 33 +35 +35 душно 1009.8 997.5
07 23.03 В 5 н/о н/о +35.0 +14.3 29 +36 +36 очень
жарко
1009.8 997.5
09 23.03 СВ 4 н/о н/о +31.4 +15.4 38 +34 +34 душно 1010.3 998.0
10 23.03 СВ 4 н/о н/о +30.1 +15.8 42 +33 +33 душно 1011.0 998.7
11 23.03 СВ 4 н/о н/о +28.5 +16.7 49 +32 +32 душно 1011.3 999.0
12 23.03 СВ 4 н/о н/о +27.3 +17.2 54 +31 +31 душно 1011.2 998.9
14 23.03 СВ 3 н/о н/о +25.9 +18.1 62 +30 +30 душно 1011.2 998.9
13 23.03 СВ 3 н/о н/о +26.9 +17.7 57 +31 +31 душно 1011.4 999.1 +36.5
15 23.03 СВ 3 н/о н/о +24.9 +18.6 68 +30 +30 душно 1010.9 998.6
16 23.03 СВ 1 н/о н/о +24.4 +19.0 72 +29 +29 душно 1010.6 998.3
17 23.03 СВ 2 н/о н/о +23.9 +19.0 74 +29 +29 душно 1010.3 998.0
18 23.03 Ю 1 н/о н/о +23.3 +19.0 77 +30 +30 очень
душно
1010.6 998.3
19 23.03 штиль 0 н/о н/о +23.0 +19.2 79 +29 +29 очень
душно
1011.0 998.7
20 23.03 ЮВ 2 н/о н/о +22.6 +18.6 78 +28 +28 душно 1011.9 999.6
21 23.03 ЮВ 2 н/о н/о +23.8 +19.1 75 +29 +29 душно 1012.4 1000.1
22 23.03 В 3 н/о н/о +27.3 +19.4 62 +33 +33 очень
душно
1012.9 1000.6
23 23.03 С 3 н/о н/о +29.9 +19.0 52 +35 +35 очень
душно
1013.1 1000.8
00 24.03 С 3 н/о н/о +31.6 +19.2 48 +37 +37 очень
душно
1013.2 1000.9
01 24.03 С 3 н/о н/о +32.9 +17.9 41 +37 +37 очень
душно
1012.9 1000.6 +22.5
02 24.03 СВ 2 н/о н/о +34.2 +14.7 31 +36 +36 душно 1012.1 999.8
03 24.03 В 3 н/о н/о +35.8 +16.5 32 +38 +38 очень
душно
1011.2 998.9
04 24.03 С 2 н/о н/о +36.2 +14.2 27 +37 +37 очень
жарко
1010.2 997.9
05 24.03 СВ 3 н/о н/о +35.9 +15.1 29 +37 +37 душно 1009.6 997.3
06 24.03 В 4 н/о н/о +36.0 +15.2 29 +38 +38 очень
душно
1009.2 996.9
07 24.03 В 4 н/о н/о +35.0 +14.3 29 +36 +36 очень
жарко
1009.4 997.1
08 24.03 СВ 4 н/о н/о +33.7 +14.7 32 +35 +35 очень
жарко
1009.7 997.4
09 24.03 СВ 3 н/о н/о +31.0 +16.2 41 +34 +34 душно 1010.0 997.7
10 24.03 СВ 3 н/о н/о +30.7 +16.7 43 +34 +34 очень
душно
1010.5 998.2
11 24.03 В 3 н/о н/о +29.9 +17.0 46 +34 +34 очень
душно
1010.8 998.5
12 24.03 В 4 н/о н/о +30.4 +16.8 44 +34 +34 очень
душно
1010.9 998.6
13 24.03 В 5 н/о н/о +29.2 +18.6 53 +34 +34 очень
душно
1011.0 998.7 +36.7
14 24.03 В 6 н/о н/о +28.7 +19.6 58 +35 +35 очень
душно
1010.9 998.6
15 24.03 В 6 н/о н/о +28.1 +19.6 60 +34 +34 очень
душно
1010.7 998.4
17 24.03 В 6 н/о н/о +27.1 +19.4 63 +33 +33 очень
душно
1010.6 998.3
16 24.03 В 5 н/о н/о +27.4 +19.5 62 +33 +33 очень
душно
1010.6 998.3
18 24.03 В 5 н/о н/о +26.5 +19.4 65 +32 +32 очень
душно
1010.8 998.5
19 24.03 В 4 н/о н/о +25.9 +19.3 67 +31 +31 очень
душно
1011.4 999.1
20 24.03 В 4 н/о н/о +25.1 +19.2 70 +30 +30 душно 1011.9 999.6
21 24.03 В 4 н/о н/о +25.3 +19.4 70 +31 +31 очень
душно
1012.5 1000.2
23 24.03 С 5 н/о н/о +29.5 +19.2 54 +35 +35 очень
душно
1013.0 1000.7
22 24.03 СВ 6 н/о н/о +27.4 +19.2 61 +33 +33 очень
душно
1012.6 1000.3
00 25.03 С 5 н/о н/о +32.1 +19.4 47 +38 +38 очень
душно
1012.9 1000.6
01 25.03 С 6 н/о н/о +33.4 +18.0 40 +38 +38 очень
душно
1012.7 1000.4 +24.7
02 25.03 С 5 н/о н/о +34.4 +17.2 36 +38 +38 очень
душно
1011.8 999.5
03 25.03 С 4 н/о н/о +35.4 +16.7 33 +38 +38 очень
душно
1010.7 998.4
05 25.03 С 3 н/о н/о +37.2 +15.6 28 +39 +39 очень
душно
1009.2 996.9
04 25.03 С 3 н/о н/о +36.1 +16.3 31 +38 +38 очень
душно
1009.9 997.6
06 25.03 ЮЗ 2 н/о н/о +37.7 +14.9 26 +39 +39 очень
душно
1008.6 996.3
07 25.03 СВ 3 н/о н/о +37.1 +13.8 25 +38 +38 душно 1008.5 996.2
08 25.03 С 3 н/о н/о +34.9 +15.3 31 +37 +37 очень
душно
1008.7 996.4
09 25.03 СВ 3 н/о н/о +31.5 +17.0 42 +35 +35 очень
душно
1009.0 996.7
11 25.03 СВ 3 н/о н/о +28.6 +17.8 52 +33 +33 очень
душно
1010.1 997.8
10 25.03 СВ 4 н/о н/о +30.4 +17.1 45 +34 +34 очень
душно
1009.6 997.3
12 25.03 С 4 н/о н/о +29.0 +17.2 49 +33 +33 очень
душно
1010.4 998.1
13 25.03 СВ 3 н/о н/о +27.5 +17.4 54 +32 +32 очень
душно
1010.4 998.1 +38.0
14 25.03 С 2 н/о н/о +27.8 +17.3 53 +32 +32 душно 1010.2 997.9
15 25.03 Ю 3 н/о н/о +27.5 +16.5 51 +31 +31 душно 1010.4 998.1
16 25.03 Ю 2 н/о н/о +27.3 +16.9 53 +31 +31 душно 1010.4 998.1
17 25.03 СЗ 2 н/о н/о +26.0 +17.4 59 +30 +30 душно 1010.1 997.8
18 25.03 С 2 н/о н/о +26.1 +17.7 60 +30 +30 душно 1010.0 997.7
19 25.03 С 1 н/о н/о +24.9 +19.1 70 +30 +30 душно 1010.2 997.9
20 25.03 В 3 н/о н/о +24.5 +18.4 69 +29 +29 душно 1011.2 998.9
21 25.03 СВ 3 н/о н/о +25.5 +18.2 64 +30 +30 душно 1011.8 999.5
22 25.03 С 3 н/о н/о +29.5 +16.7 46 +33 +33 душно 1012.4 1000.1
23 25.03 СЗ 5 н/о н/о +32.1 +15.6 37 +35 +35 очень
душно
1012.7 1000.4
00 26.03 СЗ 5 н/о н/о +34.2 +14.7 31 +36 +36 душно 1012.4 1000.1
01 26.03 СЗ 6 н/о н/о +35.7 +14.4 28 +37 +37 душно 1011.8 999.5 +24.4
02 26.03 З 6 н/о н/о +37.3 +14.0 25 +38 +38 душно 1011.1 998.8
03 26.03 ЮЗ 4 н/о н/о +38.6 +13.1 22 +39 +39 душно 1010.0 997.7
04 26.03 ЮЗ 4 н/о н/о +38.5 +12.3 21 +38 +38 очень
жарко
1009.1 996.8
05 26.03 Ю 5 н/о н/о +39.2 +11.3 19 +38 +38 очень
жарко
1008.6 996.3
06 26.03 ЮЗ 4 н/о н/о +38.8 +11.0 19 +38 +38 очень
жарко
1008.2 995.9
07 26.03 ЮВ 5 н/о н/о +38.4 +11.5 20 +38 +38 очень
жарко
1008.5 996.2
08 26.03 Ю 4 н/о н/о +36.6 +11.4 22 +36 +36 очень
жарко
1009.1 996.8
09 26.03 ЮВ 5 н/о н/о +35.0 +13.2 27 +35 +35 очень
жарко
1009.8 997.5
10 26.03 В 4 н/о н/о +33.2 +13.3 30 +34 +34 очень
жарко
1010.7 998.4
11 26.03 В 5 н/о н/о +32.6 +13.8 32 +34 +34 очень
жарко
1011.4 999.1
12 26.03 В 4 н/о н/о +31.0 +14.6 37 +33 +33 душно 1011.9 999.6
14 26.03 В 4 н/о н/о +29.1 +16.6 47 +33 +33 очень
душно
1011.6 999.3
13 26.03 В 4 н/о н/о +30.0 +15.7 42 +33 +33 душно 1011.8 999.5 +39.9
15 26.03 В 3 н/о н/о +27.9 +17.1 52 +32 +32 душно 1011.1 998.8
16 26.03 В 3 н/о н/о +26.4 +17.7 59 +31 +31 душно 1010.9 998.6
17 26.03 В 2 н/о н/о +25.4 +17.8 63 +30 +30 душно 1010.7 998.4
18 26.03 В 3 н/о н/о +25.6 +18.5 65 +30 +30 душно 1010.8 998.5
20 26.03 В 3 н/о н/о +24.3 +18.9 72 +29 +29 душно 1011.7 999.4
19 26.03 В 3 н/о н/о +25.1 +18.8 68 +30 +30 душно 1011.0 998.7
21 26.03 В 3 н/о н/о +24.6 +19.4 73 +30 +30 очень
душно
1012.2 999.9
22 26.03 В 5 н/о н/о +26.8 +19.2 63 +32 +32 очень
душно
1012.8 1000.5
23 26.03 СВ 4 н/о н/о +29.3 +19.0 54 +35 +35 очень
душно
1012.8 1000.5
00 27.03 СВ 4 н/о н/о +31.5 +18.5 46 +36 +36 очень
душно
1012.4 1000.1
02 27.03 СВ 3 н/о н/о +36.2 +14.2 27 +37 +37 очень
жарко
1011.0 998.7
01 27.03 С 2 н/о н/о +33.8 +16.2 35 +36 +36 очень
душно
1012.0 999.7 +23.8
03 27.03 С 3 н/о н/о +37.2 +13.3 24 +37 +37 очень
жарко
1009.9 997.6
04 27.03 ЮЗ 3 н/о н/о +38.7 +13.2 22 +39 +39 душно 1008.8 996.5
05 27.03 В 3 н/о н/о +38.8 +12.5 21 +38 +38 очень
жарко
1008.0 995.7
06 27.03 С 3 н/о н/о +38.9 +11.9 20 +38 +38 очень
жарко
1007.5 995.2
08 27.03 В 3 н/о н/о +37.0 +11.8 22 +36 +36 очень
жарко
1007.7 995.4
07 27.03 В 3 н/о н/о +38.9 +11.1 19 +38 +38 очень
жарко
1007.4 995.1
09 27.03 СВ 3 н/о н/о +32.9 +13.0 30 +34 +34 очень
жарко
1008.0 995.7
10 27.03 СВ 4 н/о н/о +32.7 +13.8 32 +34 +34 очень
жарко
1008.1 995.8
11 27.03 СВ 4 н/о н/о +31.1 +13.8 35 +33 +33 душно 1008.6 996.3
12 27.03 СВ 4 н/о н/о +29.7 +14.3 39 +32 +32 душно 1008.6 996.3
14 27.03 СВ 3 н/о н/о +28.2 +14.4 43 +30 +30 жарко 1008.9 996.6
13 27.03 СВ 4 н/о н/о +29.0 +14.4 41 +31 +31 жарко 1008.7 996.4 +39.8
15 27.03 З 3 н/о н/о +27.3 +14.7 46 +30 +30 душно 1009.1 996.8
16 27.03 Ю 2 н/о н/о +26.7 +14.8 48 +29 +29 жарко 1009.0 996.7
17 27.03 Ю 3 н/о н/о +26.8 +15.2 49 +30 +30 душно 1009.1 996.8
18 27.03 В 2 н/о н/о +25.8 +15.2 52 +29 +29 душно 1009.0 996.7
19 27.03 ЮВ 2 н/о н/о +25.2 +15.2 54 +28 +28 жарко 1009.5 997.2
20 27.03 ЮВ 4 н/о н/о +25.4 +15.7 55 +29 +29 душно 1010.1 997.8
21 27.03 ЮВ 3 н/о н/о +25.3 +16.2 57 +29 +29 душно 1010.5 998.2
22 27.03 ЮВ 3 н/о н/о +27.9 +16.5 50 +31 +31 душно 1011.0 998.7
23 27.03 В 2 н/о н/о +30.5 +16.1 42 +34 +34 очень
душно
1011.3 999.0
00 28.03 С 4 н/о н/о +33.7 +14.7 32 +35 +35 очень
жарко
1011.1 998.8
01 28.03 СЗ 3 н/о н/о +35.7 +14.9 29 +37 +37 душно 1010.6 998.3 +24.8
02 28.03 С 3 н/о н/о +37.5 +14.1 25 +38 +38 очень
жарко
1009.8 997.5
03 28.03 С 3 н/о н/о +38.5 +14.3 24 +39 +39 душно 1008.8 996.5
04 28.03 С 4 н/о н/о +39.1 +14.2 23 +40 +40 очень
душно
1008.1 995.8
05 28.03 С 3 н/о н/о +39.6 +13.2 21 +40 +40 очень
душно
1007.5 995.2
06 28.03 Ю 2 н/о н/о +39.0 +12.7 21 +39 +39 очень
жарко
1007.2 994.9
07 28.03 З 5 н/о н/о +38.5 +13.7 23 +39 +39 душно 1007.3 995.0
08 28.03 ЮЗ 4 н/о н/о +36.8 +12.9 24 +37 +37 очень
жарко
1007.6 995.3
09 28.03 ЮЗ 4 н/о н/о +34.8 +12.5 26 +35 +35 очень
жарко
1008.3 996.0
10 28.03 ЮЗ 5 н/о н/о +33.3 +12.3 28 +34 +34 очень
жарко
1009.1 996.8
11 28.03 Ю 4 н/о н/о +32.0 +11.7 29 +32 +32 жарко 1010.1 997.8
12 28.03 ЮВ 4 н/о н/о +30.9 +16.5 42 +34 +34 душно 1010.5 998.2
13 28.03 ЮВ 5 н/о н/о +29.4 +15.5 43 +32 +32 душно 1010.2 997.9 +40.3
14 28.03 ЮВ 5 н/о н/о +28.2 +14.4 43 +30 +30 жарко 1010.1 997.8
15 28.03 ЮВ 5 н/о н/о +27.3 +14.0 44 +29 +29 жарко 1010.0 997.7
17 28.03 В 4 н/о н/о +25.7 +13.9 48 +28 +28 жарко 1009.0 996.7
16 28.03 ЮВ 5 н/о н/о +26.4 +14.2 47 +29 +29 жарко 1009.4 997.1
18 28.03 В 3 н/о н/о +24.6 +13.8 51 +27 +27 жарко 1008.9 996.6
19 28.03 В 3 н/о н/о +24.1 +13.3 51 +26 +26 жарко 1009.1 996.8
20 28.03 В 3 н/о н/о +23.1 +13.8 56 +27 +27 душно 1009.4 997.1
21 28.03 СВ 2 н/о н/о +23.3 +14.3 57 +27 +27 душно 1009.9 997.6
22 28.03 СВ 5 н/о н/о +26.2 +15.3 51 +29 +29 жарко 1010.3 998.0

 

Местоположение метеостанции Bourke Airport Aws (Новый Южный Уэльс, Австралия): широта -30.03 долгота 145.95 высота над уровнем моря 108 м.

В архиве по умолчанию представлена погода в Bourke Airport Aws за последнюю неделю. Архивные данные за месяц целиком и за предыдущие месяцы, начиная с января 2011 года, Вы можете получить, выбрав интересующий диапазон дат из раскрывающегося списка и нажав кнопку "Ввод!".

Внимание! Время в таблицах - всемирное. Для получения местного времени необходимо прибавить поправку, которая в Bourke Airport Aws равна 10 ч.

Смотрите также архив погоды в соседних городах и на ближайших метеорологических станциях:

Погода в Cobar Mo (Новый Южный Уэльс, Австралия) (162 км)
Погода в Cobar Airport Aws (Новый Южный Уэльс, Австралия) (167 км)
Погода в Walgett Airport Aws (Новый Южный Уэльс, Австралия) (209 км)
Погода в Coonamble Airport (Новый Южный Уэльс, Австралия) (256 км)
Погода в Trangie Research Stn (Новый Южный Уэльс, Австралия) (289 км)
Погода в White Cliffs Aws (Новый Южный Уэльс, Австралия) (291 км)
Погода в Wilcannia Aerodrome (Новый Южный Уэльс, Австралия) (296 км)
Погода в Thargomindah Airport (Квинсленд, Австралия) (309 км)
Погода в St George Airport (Квинсленд, Австралия) (339 км)
Погода в Dubbo Airport Aws (Новый Южный Уэльс, Австралия) (347 км)

Пояснения к столбцам:

Ветер - указаны скорость ветра в м/с - средняя за 10 мин, порывы в срок и между сроками (в фигурных скобках) и направление, откуда дует ветер: С - северный, СВ - северо-восточный, В - восточный, ЮВ - юго-восточный, Ю - южный, ЮЗ - юго-западный, З - западный, СЗ - северо-западный.
Видимость - горизонтальная дальность видимости в метрах или километрах. При видимости от 1 до 10 км при отсутствии осадков обычно наблюдается дымка, при ухудшении видимости до 1 км и менее - туман. В сухую погоду видимость может ухудшаться дымом, пылью или мглою.
Явления - указаны атмосферные явления, наблюдавшиеся в срок или в последний час перед сроком; фигурными скобками обозначены явления, наблюдавшиеся между сроками (за 1-3 часа до срока); квадратными скобками обозначены град или гололедные отложения с указанием их диаметра в мм.
Облачность - указаны через наклонную черту общая и нижняя облачность в баллах и высота нижней границы облаков в метрах; квадратными скобками обозначены формы облаков: Ci - перистые, Cs - перисто-слоистые, Cc - перисто-кучевые, Ac - высококучевые, As - высокослоистые, Sc - слоисто-кучевые, Ns - слоисто-дождевые, Cu - кучевые, Cb - кучево-дождевые. Подробнее классификацию облаков см. в Атласе облаков (PDF).
T - Температура воздуха - температура, измеренная на высоте 2 м над землей.
Td - Температура точки росы - температура, при понижении до которой содержащийся в воздухе водяной пар достигнет насыщения.
f - Относительная влажность воздуха - влажноcть воздуха, измеренная на высоте 2 м над землей.
Te - Эффективная температура - температура, которую ощущает одетый по сезону человек в тени. Характеристика душности погоды. При расчете учитывается влияние влажности воздуха и скорости ветра на теплоощущения человека.
Tes - Эффективная температура на солнце - температура, которую ощущает человек, с поправкой на солнечный нагрев. Характеристика знойности погоды. Зависит от высоты солнца над горизонтом, облачности и скорости ветра. Ночью, в пасмурную погоду, а также при ветре 12 м/с и более поправка равна нулю.
P - Атмосферное давление - приведенное к уровню моря атмосферное давление.
Po - Атмосферное давление - измеренное на уровне метеостанции атмосферное давление.
Tmin - Минимальная температура - минимум температуры воздуха на высоте 2 м над землей.
Tmax - Максимальная температура - максимум температуры воздуха на высоте 2 м над землей.
R - Количество осадков - Количество выпавших осадков, мм. При наведении курсора мыши на число - период времени, за который выпало указанное количество осадков.
S - Снежный покров - Высота снежного покрова, см. При наведении курсора мыши на число - состояние снежного покрова и степень покрытия местности в баллах.